This is the latest recevied weather packets stored in our database for station/object WC4PEM-8. If no packets are shown the sender has not sent any weather packets the latest 10 day(s).
| Time | Temp. | Humidity | Pressure | Rain* | Wind** | Luminosity | Snow |
|---|---|---|---|---|---|---|---|
| 1778155252 | 22.22° C | 88% | 1015.8 hPa | 0 mm | - | - | - |
| 1778154952 | 21.67° C | 89% | 1015.7 hPa | 0 mm | - | - | - |
| 1778154652 | 21.11° C | 91% | 1015.6 hPa | 0 mm | - | - | - |
| 1778154352 | 20.56° C | 92% | 1015.6 hPa | 0 mm | - | - | - |
| 1778154217 | 20.56° C | 94% | 1015.6 hPa | 0 mm | - | - | - |
| 1778154052 | 20.56° C | 94% | 1015.6 hPa | 0 mm | - | - | - |
| 1778153752 | 20° C | 95% | 1015.5 hPa | 0 mm | - | - | - |
| 1778153452 | 20° C | 95% | 1015.5 hPa | 0 mm | - | - | - |
| 1778153152 | 20° C | 96% | 1015.5 hPa | 0 mm | - | - | - |
| 1778152852 | 19.44° C | 96% | 1015.4 hPa | 0 mm | - | - | - |
| 1778152552 | 19.44° C | 96% | 1015.4 hPa | 0 mm | - | - | - |
| 1778152252 | 19.44° C | 96% | 1015.4 hPa | 0 mm | - | - | - |
| 1778151986 | 19.44° C | 95% | 1015.4 hPa | 0 mm | - | - | - |
| 1778151952 | 19.44° C | 95% | 1015.5 hPa | 0 mm | - | - | - |
| 1778151652 | 19.44° C | 95% | 1015.4 hPa | 0 mm | - | - | - |
| 1778151352 | 19.44° C | 95% | 1015.3 hPa | 0 mm | - | - | - |
| 1778151052 | 19.44° C | 95% | 1015.2 hPa | 0 mm | - | - | - |
| 1778150752 | 19.44° C | 95% | 1015.4 hPa | 0 mm | - | - | - |
| 1778150724 | 19.44° C | 95% | 1015.4 hPa | 0 mm | - | - | - |
| 1778150452 | 19.44° C | 95% | 1015.4 hPa | 0 mm | - | - | - |
| 1778150152 | 19.44° C | 95% | 1015.3 hPa | 0 mm | - | - | - |
| 1778149852 | 19.44° C | 95% | 1015.2 hPa | 0 mm | - | - | - |
| 1778149552 | 20° C | 95% | 1015.3 hPa | 0 mm | - | - | - |
| 1778149252 | 20° C | 95% | 1015.1 hPa | 0 mm | - | - | - |
| 1778148952 | 20° C | 95% | 1015.1 hPa | 0 mm | - | - | - |
* Rain latest hour (hover to see other rain measurements)
** Current wind speed in m/s (hover to see current wind gust speed)